Home > Weather > Campbell River > Past weeks

Flag for Canada Weather for the Past 2 Weeks in Campbell River, British Columbia, Canada

Now
61 °F

Mostly cloudy.


Feels Like: 61 °F
Forecast: 50 / 61 °F
Wind: 3 mph from South

Location: Comox

Current Time: May 3, 2016 at 2:43:26 AM

Latest Report: May 3, 2016 at 2:00 AM


Visibility: 20 mi

Pressure: 29.92 "Hg

Humidity: 72%

Dew Point: 52 °F

Location of Campbell RiverLocation

Historic Weather in Campbell River — Graph

°F

Campbell River Temperature Yesterday

Maximum temperature yesterday: 72 °F (at 4:00 PM)
Minimum temperature yesterday: 46 °F (at 6:00 AM)
Average temperature yesterday: 60 °F

High & Low Weather Summary for the Past Weeks

 TemperatureHumidityPressure
High75 °F (Apr 20, 6:00 PM)100% (Apr 18, 6:00 AM)30.40 "Hg (Apr 18, 6:00 AM)
Low41 °F (Apr 25, 6:00 AM)39% (Apr 20, 6:00 PM)29.60 "Hg (Apr 22, 9:00 AM)
Average55 °F72%30.01 "Hg
* Reported Apr 18 1:00 AM — May 3 1:00 AM, Campbell River, Weather by CustomWeather, © 2016

Note: Actual official high and low records may vary slightly from our data, if they occured in-between our weather recording intervals... More about our weather records

Advertising

Campbell River Weather History for the Previous 24 Hours

Scroll right to see more
 ConditionsComfort  
Time TempWeatherWind HumidityBarometerVisibility
1:00 AM
Tue, May 3
63 °FPassing clouds.No wind68%29.92 "Hg20 mi
12:00 AM64 °FPassing clouds.2 mph68%29.91 "Hg20 mi
11:00 PM
Mon, May 2
63 °FPassing clouds.7 mph73%29.91 "Hg20 mi
10:00 PM64 °FSprinkles. Passing clouds.7 mph73%29.92 "Hg20 mi
9:00 PM66 °FSprinkles. Partly sunny.7 mph52%29.91 "Hg20 mi
8:00 PM68 °FBroken clouds.3 mph49%29.90 "Hg20 mi
7:00 PM72 °FPartly sunny.2 mph41%29.88 "Hg20 mi
6:00 PM70 °FScattered clouds.5 mph43%29.88 "Hg20 mi
5:00 PM72 °FScattered clouds.6 mph44%29.89 "Hg20 mi
4:00 PM72 °FPassing clouds.3 mph41%29.91 "Hg20 mi
3:00 PM68 °FPassing clouds.5 mph56%29.93 "Hg20 mi
2:00 PM68 °FPassing clouds.7 mph49%29.95 "Hg20 mi
1:00 PM66 °FPassing clouds.7 mph56%29.97 "Hg20 mi
12:00 PM64 °FSunny.6 mph60%29.98 "Hg20 mi
11:00 AM61 °FSunny.3 mph68%29.99 "Hg20 mi
10:00 AM61 °FSunny.5 mph63%30.00 "Hg20 mi
9:00 AM59 °FSunny.6 mph59%30.00 "Hg20 mi
8:00 AM55 °FSunny.2 mph63%29.99 "Hg20 mi
7:00 AM48 °FSunny.No wind82%29.98 "Hg20 mi
6:00 AM46 °FClear.2 mph76%29.98 "Hg20 mi
5:00 AM48 °FClear.No wind71%29.98 "Hg20 mi
4:00 AM48 °FClear.No wind76%29.97 "Hg20 mi
3:00 AM48 °FClear.2 mph76%29.96 "Hg20 mi
2:00 AM50 °FClear.No wind71%29.96 "Hg20 mi
Weather by CustomWeather, © 2016

See weather overviewHow to use our weather pages